Regional Weather Roundup
Issued by NWS Cleveland, OH

Home | Current Version | Previous Version | Text Only | Print | Product List | Glossary Off
Versions: 1 2 3 4 5 6 7 8 9 10 11 12 13 14 15 16 17 18 19 20 21 22 23 24 25 26 27 28 29 30 31 32 33 34 35 36 37 38 39 40 41 42 43 44 45 46 47 48 49 50

000
ASUS41 KCLE 250612
RWRCLE
OHIO REGIONAL WEATHER ROUNDUP
NATIONAL WEATHER SERVICE WILMINGTON, OH
200 AM EDT MON JUL 25 2016

NOTE: "FAIR" INDICATES FEW OR NO CLOUDS BELOW 12,000 FEET WITH NO
SIGNIFICANT WEATHER AND/OR OBSTRUCTIONS TO VISIBILITY.

OHZ001>008-015>018-024>027-034-035-043-044-250700-
   NORTHWEST OHIO

CITY           SKY/WX    TMP DP  RH WIND       PRES   REMARKS
DEFIANCE       MOCLDY    83  74  74 SW10      29.93R
FINDLAY        FAIR      79  73  82 SW10      29.95R
TOLEDO EXPRESS FAIR      78  76  93 SW8       29.91S
TOLEDO EXEC    FAIR      80  76  87 SW9       29.92S
LIMA           FAIR      79  76  90 SW8       29.98R
$$

OHZ009>014-019>023-028>033-038-089-250700-
   NORTHEAST OHIO

CITY           SKY/WX    TMP DP  RH WIND       PRES   REMARKS
CLE-HOPKINS    FAIR      80  68  66 S10       29.96S
CLE-LAKEFRONT  FAIR      80  71  74 S12       29.92S
CUY CO. ARPT   NOT AVBL
LORAIN-ELYRIA  FAIR      75  69  81 SW8       29.95S
ASHTABULA      FAIR      74  73  97 S6        29.97R
AKRON-CANTON   FAIR      74  70  87 S5        29.99S
WOOSTER        FAIR      71  67  87 S5        29.99S
MANSFIELD      FAIR      74  72  93 S7        30.00R
YOUNGSTOWN     FAIR      73  70  90 S8        29.98S
$$

OHZ042-051>053-060>062-070>072-077>081-250700-
  SOUTHWEST OHIO

CITY           SKY/WX    TMP DP  RH WIND       PRES   REMARKS
CINC-COVINGTON FAIR      79  76  90 SW5       30.01R
CINC-LUNKEN    FAIR      76  76 100 S3        29.99R
HAMILTON       FAIR      79  74  84 W5        30.00R
DAYTON         MOCLDY    81  75  82 W10       30.01R
WRIGHT-PAT AFB MOCLDY    80  77  89 SW2       29.99R
DAYTON GENERAL FAIR      82  73  74 W5        30.00R
WILMINGTON     FAIR      75  73  93 S3        30.00R
$$

OHZ036-037-039>041-045>050-054>059-063>069-073>076-082>088-250700-
  CENTRAL AND SOUTHEAST OHIO

CITY           SKY/WX    TMP DP  RH WIND       PRES   REMARKS
COLUMBUS       FAIR      79  73  82 CALM      29.98R
OSU AIRPORT    FAIR      76  73  91 SW3       29.98S
BOLTON FIELD   FAIR      75  74  95 W3        29.99S
RICKENBACK AFB FAIR      76  74  92 CALM      29.98R
NEWARK         FAIR      73  72  96 CALM      29.98S
MARION         FAIR      75  72  90 S7        29.99R
LANCASTER      FAIR      75  73  93 S3        29.99S
ZANESVILLE     FAIR      78  72  81 S3        29.99S
NEW PHILLY     FAIR      75  70  84 SE3       29.99R
$$



USA.gov is the U.S. government's official web portal to all federal, state and local government web resources and services.